Weather History for Llano, TX

Change the Weather History Date:

Tuesday, March 5, 2013

  Actual Average (KBMQ) Record (KBMQ)
Temperature  
Mean Temperature 54 °F -  
Max Temperature 69 °F 63 °F 84 °F (2009)
Min Temperature 39 °F 43 °F 26 °F (2002)
Degree Days  
Heating Degree Days 11    
Growing Degree Days 4 (Base 50)    
Moisture  
Dew Point 19 °F    
Average Humidity 31    
Maximum Humidity 58    
Minimum Humidity 11    
Precipitation  
Precipitation 0.00 in - - ()
Sea Level Pressure  
Sea Level Pressure 30.28 in    
Wind  
Wind Speed 12 mph (North)    
Max Wind Speed 32 mph    
Max Gust Speed 45 mph    
Visibility 10 miles    
Events      
Averages and records for this station are not official NWS values.
T = Trace of Precipitation, MM = Missing Value Source: NWS Daily Summary

Daily Weather History Graph

Daily Weather History Graph

Search for Another Location

Airport:

Trip Planner

Search our weather history database for the weather conditions in past years. The results will help you decide how hot, cold, wet, or windy it might be!

Date:

Astronomy

Mar. 05, 2013 Rise Set
Actual Time 6:56 AM CST 6:36 PM CST
Civil Twilight 6:32 AM CST 7:00 PM CST
Nautical Twilight 6:04 AM CST 7:28 PM CST
Astronomical Twilight 5:36 AM CST 7:56 PM CST
Moon 1:52 AM CST (3/5) 12:34 PM CST (3/5)
Length of Visible Light 12h 28m
Length of Day
11h 40m
Last Quarter, 40% of the Moon is Illuminated
Mar 5
Last Quarter
Mar 11
New
Mar 19
First Quarter
Mar 27
Full
Apr 2
Last Quarter

Hourly Weather History & Observations

Time (CST) Temp. Windchill Dew Point Humidity Pressure Visibility Wind Dir Wind Speed Gust Speed Precip Events Conditions
12:35 AM 55.4 °F - 32.0 °F 41% 29.78 in 10.0 mi Calm Calm - N/A   Clear
12:55 AM 59.0 °F - 33.8 °F 39% 29.80 in 10.0 mi NNW 6.9 mph - N/A   Clear
1:15 AM 64.4 °F - 32.0 °F 30% 29.81 in 10.0 mi NW 6.9 mph - N/A   Clear
1:35 AM 60.8 °F - 32.0 °F 34% 29.87 in 10.0 mi NNW 9.2 mph - N/A   Clear
1:55 AM 69.8 °F - 30.2 °F 23% 29.92 in 10.0 mi North 25.3 mph 38.0 mph N/A   Clear
2:15 AM 60.8 °F - 41.0 °F 48% 29.96 in 10.0 mi North 31.1 mph 41.4 mph N/A   Clear
2:35 AM 55.4 °F - 37.4 °F 51% 29.98 in 9.0 mi North 32.2 mph 44.9 mph N/A   Clear
2:55 AM 53.6 °F - 37.4 °F 54% 30.04 in 10.0 mi North 19.6 mph 32.2 mph N/A   Clear
3:15 AM 51.8 °F - 37.4 °F 58% 30.09 in 10.0 mi North 9.2 mph 21.9 mph N/A   Clear
3:35 AM 50.0 °F - 35.6 °F 58% 30.12 in 10.0 mi North 19.6 mph 29.9 mph N/A   Clear
3:55 AM 50.0 °F - 33.8 °F 54% 30.15 in 10.0 mi North 20.7 mph 31.1 mph N/A   Clear
4:15 AM 48.2 °F - 33.8 °F 58% 30.17 in 10.0 mi North 19.6 mph 33.4 mph N/A   Clear
4:35 AM 48.2 °F - 33.8 °F 58% 30.19 in 10.0 mi North 17.3 mph 25.3 mph N/A   Clear
4:55 AM 48.2 °F - 33.8 °F 58% 30.21 in 10.0 mi North 17.3 mph - N/A   Clear
5:15 AM 48.2 °F - 33.8 °F 58% 30.22 in 10.0 mi North 17.3 mph 24.2 mph N/A   Clear
5:35 AM 48.2 °F - 33.8 °F 58% 30.23 in 10.0 mi North 16.1 mph 20.7 mph N/A   Clear
5:55 AM 48.2 °F - 33.8 °F 58% 30.25 in 10.0 mi North 11.5 mph 20.7 mph N/A   Clear
6:15 AM 46.4 °F 41.1 °F 32.0 °F 57% 30.26 in 10.0 mi North 11.5 mph 16.1 mph N/A   Clear
6:35 AM 46.4 °F 40.1 °F 32.0 °F 57% 30.27 in 10.0 mi North 15.0 mph 20.7 mph N/A   Clear
6:55 AM 46.4 °F 41.1 °F 32.0 °F 57% 30.28 in 10.0 mi North 11.5 mph 23.0 mph N/A   Clear
7:15 AM 46.4 °F 39.8 °F 30.2 °F 53% 30.30 in 10.0 mi North 16.1 mph 25.3 mph N/A   Clear
7:35 AM 46.4 °F 39.8 °F 30.2 °F 53% 30.31 in 10.0 mi NNE 16.1 mph 23.0 mph N/A   Clear
7:55 AM 46.4 °F 39.0 °F 26.6 °F 46% 30.32 in 10.0 mi NNE 19.6 mph 24.2 mph N/A   Clear
8:35 AM 48.2 °F - 21.2 °F 34% 30.35 in 10.0 mi NNE 15.0 mph 25.3 mph N/A   Clear
8:55 AM 50.0 °F - 19.4 °F 30% 30.36 in 10.0 mi North 15.0 mph 23.0 mph N/A   Clear
9:15 AM 50.0 °F - 19.4 °F 30% 30.36 in 10.0 mi North 23.0 mph 28.8 mph N/A   Clear
9:35 AM 51.8 °F - 19.4 °F 28% 30.37 in 10.0 mi NNE 13.8 mph 26.5 mph N/A   Clear
9:55 AM 51.8 °F - 19.4 °F 28% 30.37 in 10.0 mi NNE 16.1 mph 26.5 mph N/A   Clear
10:15 AM 53.6 °F - 17.6 °F 24% 30.37 in 10.0 mi NNE 17.3 mph 27.6 mph N/A   Clear
10:35 AM 55.4 °F - 19.4 °F 25% 30.38 in 10.0 mi NNE 13.8 mph 27.6 mph N/A   Clear
10:55 AM 55.4 °F - 19.4 °F 25% 30.38 in 10.0 mi North 16.1 mph 26.5 mph N/A   Clear
11:15 AM 57.2 °F - 17.6 °F 21% 30.38 in 10.0 mi North 16.1 mph 28.8 mph N/A   Clear
11:35 AM 59.0 °F - 15.8 °F 19% 30.38 in 10.0 mi North 20.7 mph 25.3 mph N/A   Clear
11:55 AM 59.0 °F - 14.0 °F 17% 30.38 in 10.0 mi North 16.1 mph 26.5 mph N/A   Clear
12:15 PM 60.8 °F - 12.2 °F 15% 30.37 in 10.0 mi NNW 20.7 mph 27.6 mph N/A   Clear
12:35 PM 60.8 °F - 12.2 °F 15% 30.37 in 10.0 mi North 13.8 mph 25.3 mph N/A   Clear
12:55 PM 60.8 °F - 12.2 °F 15% 30.36 in 10.0 mi North 12.7 mph 25.3 mph N/A   Clear
1:15 PM 62.6 °F - 12.2 °F 14% 30.35 in 10.0 mi NNW 19.6 mph 26.5 mph N/A   Clear
1:35 PM 62.6 °F - 14.0 °F 15% 30.34 in 10.0 mi North 15.0 mph 26.5 mph N/A   Clear
1:55 PM 62.6 °F - 10.4 °F 13% 30.34 in 10.0 mi North 15.0 mph 24.2 mph N/A   Clear
2:15 PM 62.6 °F - 10.4 °F 13% 30.33 in 10.0 mi North 13.8 mph 20.7 mph N/A   Clear
2:35 PM 62.6 °F - 8.6 °F 12% 30.33 in 10.0 mi North 16.1 mph 23.0 mph N/A   Clear
2:55 PM 62.6 °F - 8.6 °F 12% 30.33 in 10.0 mi North 15.0 mph - N/A   Clear
3:15 PM 62.6 °F - 8.6 °F 12% 30.33 in 10.0 mi North 12.7 mph 18.4 mph N/A   Clear
3:35 PM 64.4 °F - 8.6 °F 11% 30.33 in 10.0 mi NNE 12.7 mph 20.7 mph N/A   Clear
3:55 PM 62.6 °F - 8.6 °F 12% 30.33 in 10.0 mi NNE 12.7 mph 20.7 mph N/A   Clear
4:15 PM 62.6 °F - 8.6 °F 12% 30.33 in 10.0 mi North 13.8 mph 17.3 mph N/A   Clear
4:35 PM 62.6 °F - 6.8 °F 11% 30.33 in 10.0 mi North 13.8 mph 17.3 mph N/A   Clear
4:55 PM 62.6 °F - 8.6 °F 12% 30.34 in 10.0 mi North 11.5 mph - N/A   Clear
5:15 PM 62.6 °F - 6.8 °F 11% 30.33 in 10.0 mi North 12.7 mph 23.0 mph N/A   Clear
5:55 PM 60.8 °F - 5.0 °F 11% 30.34 in 10.0 mi NNE 8.1 mph - N/A   Clear
6:15 PM 59.0 °F - 6.8 °F 13% 30.35 in 10.0 mi North 3.5 mph - N/A   Clear
6:35 PM 57.2 °F - 6.8 °F 13% 30.36 in 10.0 mi North 6.9 mph - N/A   Clear
6:55 PM 53.6 °F - 8.6 °F 16% 30.36 in 10.0 mi North 3.5 mph - N/A   Clear
7:15 PM 51.8 °F - 8.6 °F 18% 30.36 in 10.0 mi Calm Calm - N/A   Clear
7:35 PM 50.0 °F - 8.6 °F 19% 30.37 in 10.0 mi Calm Calm - N/A   Clear
7:55 PM 48.2 °F - 8.6 °F 20% 30.37 in 10.0 mi Calm Calm - N/A   Clear
8:15 PM 46.4 °F - 10.4 °F 23% 30.37 in 10.0 mi Calm Calm - N/A   Clear
8:35 PM 44.6 °F 43.1 °F 10.4 °F 25% 30.38 in 10.0 mi North 3.5 mph - N/A   Clear
8:55 PM 44.6 °F - 10.4 °F 25% 30.39 in 10.0 mi Calm Calm - N/A   Clear
9:15 PM 42.8 °F - 10.4 °F 27% 30.39 in 10.0 mi Calm Calm - N/A   Clear
9:35 PM 42.8 °F - 12.2 °F 29% 30.40 in 10.0 mi Calm Calm - N/A   Clear
9:55 PM 39.2 °F - 10.4 °F 31% 30.40 in 10.0 mi Calm Calm - N/A   Clear
10:15 PM 39.2 °F - 10.4 °F 31% 30.41 in 10.0 mi Calm Calm - N/A   Clear
10:35 PM 39.2 °F - 12.2 °F 33% 30.41 in 10.0 mi Calm Calm - N/A   Clear
10:55 PM 39.2 °F - 12.2 °F 33% 30.41 in 10.0 mi Calm Calm - N/A   Clear
11:15 PM 39.2 °F - 12.2 °F 33% 30.41 in 10.0 mi Calm Calm - N/A   Clear
11:35 PM 39.2 °F - 10.4 °F 31% 30.42 in 10.0 mi Calm Calm - N/A   Clear
11:55 PM 39.2 °F - 12.2 °F 33% 30.42 in 10.0 mi Calm Calm - N/A   Clear